Time,TemperatureF,DewpointF,PressureIn,WindDirection,WindDirectionDegrees,WindSpeedMPH,WindSpeedGustMPH,Humidity,HourlyPrecipIn,Conditions,Clouds,dailyrainin,SoftwareType,DateUTC
2013-04-13 00:02:00,41.5,34.2,29.77,SE,137,13.0,13.0,75,0.00,,FEW,0.00,VWS V14.01,2013-04-13 07:02:00,
2013-04-13 00:07:00,41.5,34.2,29.77,SSW,205,4.0,13.0,75,0.00,,FEW,0.00,VWS V14.01,2013-04-13 07:07:00,
2013-04-13 00:12:00,41.5,34.2,29.77,South,180,6.0,14.0,75,0.00,,FEW,0.00,VWS V14.01,2013-04-13 07:12:00,
2013-04-13 00:17:00,41.5,34.2,29.76,South,189,6.0,14.0,75,0.00,,FEW,0.00,VWS V14.01,2013-04-13 07:17:00,
2013-04-13 00:23:00,41.6,34.3,29.76,SSW,198,2.0,14.0,75,0.00,,FEW,0.00,VWS V14.01,2013-04-13 07:23:00,
2013-04-13 00:28:00,41.5,34.2,29.76,SSW,192,4.0,14.0,75,0.00,,FEW,0.00,VWS V14.01,2013-04-13 07:28:00,
2013-04-13 00:33:00,41.3,34.3,29.77,SSW,199,3.0,3.0,76,0.00,,FEW,0.00,VWS V14.01,2013-04-13 07:33:00,
2013-04-13 00:38:00,41.2,34.9,29.77,South,187,3.0,16.0,78,0.00,,FEW,0.00,VWS V14.01,2013-04-13 07:38:00,
2013-04-13 00:43:00,40.3,34.9,29.77,South,176,8.0,16.0,81,0.00,,FEW,0.00,VWS V14.01,2013-04-13 07:43:00,
2013-04-13 00:48:00,39.8,35.1,29.78,South,183,5.0,16.0,83,0.00,,FEW,0.00,VWS V14.01,2013-04-13 07:48:00,
2013-04-13 00:53:00,39.6,35.2,29.78,South,187,6.0,16.0,84,0.00,,FEW,0.00,VWS V14.01,2013-04-13 07:53:00,
2013-04-13 00:58:00,39.5,35.1,29.78,South,175,8.0,16.0,84,0.00,,FEW,0.00,VWS V14.01,2013-04-13 07:58:00,
2013-04-13 01:05:00,39.5,35.1,29.78,SSW,199,7.0,15.0,84,0.00,,FEW,0.00,VWS V14.01,2013-04-13 08:05:00,
2013-04-13 01:10:00,39.3,35.2,29.78,South,175,1.0,15.0,85,0.00,,FEW,0.00,VWS V14.01,2013-04-13 08:10:00,
2013-04-13 01:15:00,39.2,35.7,29.79,South,191,3.0,15.0,87,0.00,,FEW,0.00,VWS V14.01,2013-04-13 08:15:00,
2013-04-13 01:21:00,38.9,35.4,29.79,South,191,1.0,15.0,87,0.01,,FEW,0.01,VWS V14.01,2013-04-13 08:21:00,
2013-04-13 01:26:00,38.6,35.4,29.79,South,189,6.0,15.0,88,0.01,,FEW,0.01,VWS V14.01,2013-04-13 08:26:00,
2013-04-13 01:31:00,38.6,35.4,29.80,South,177,5.0,9.0,88,0.02,,FEW,0.02,VWS V14.01,2013-04-13 08:31:00,
2013-04-13 01:37:00,38.5,35.3,29.80,South,189,3.0,9.0,88,0.02,,FEW,0.02,VWS V14.01,2013-04-13 08:37:00,
2013-04-13 01:42:00,38.5,35.5,29.80,SSW,201,2.0,9.0,89,0.02,,FEW,0.02,VWS V14.01,2013-04-13 08:42:00,
2013-04-13 01:47:00,38.3,35.3,29.80,SSW,196,4.0,9.0,89,0.02,,FEW,0.02,VWS V14.01,2013-04-13 08:47:00,
2013-04-13 01:52:00,38.5,35.8,29.80,SSW,192,2.0,9.0,90,0.02,,FEW,0.02,VWS V14.01,2013-04-13 08:52:00,
2013-04-13 01:57:00,38.6,35.9,29.80,South,183,2.0,9.0,90,0.02,,FEW,0.02,VWS V14.01,2013-04-13 08:57:00,
2013-04-13 02:02:00,38.5,35.8,29.80,South,187,5.0,10.0,90,0.02,,FEW,0.02,VWS V14.01,2013-04-13 09:02:00,
2013-04-13 02:07:00,38.5,35.5,29.80,South,184,4.0,10.0,89,0.02,,FEW,0.02,VWS V14.01,2013-04-13 09:07:00,
2013-04-13 02:13:00,38.5,35.5,29.80,South,191,4.0,10.0,89,0.02,,FEW,0.02,VWS V14.01,2013-04-13 09:13:00,
2013-04-13 02:18:00,38.5,35.5,29.80,South,189,4.0,10.0,89,0.02,,FEW,0.02,VWS V14.01,2013-04-13 09:18:00,
2013-04-13 02:23:00,38.3,35.3,29.80,South,191,9.0,10.0,89,0.02,,FEW,0.02,VWS V14.01,2013-04-13 09:23:00,
2013-04-13 02:28:00,38.5,35.5,29.80,South,189,10.0,10.0,89,0.02,,FEW,0.02,VWS V14.01,2013-04-13 09:28:00,
2013-04-13 02:33:00,38.5,35.5,29.80,SE,141,4.0,8.0,89,0.00,,FEW,0.02,VWS V14.01,2013-04-13 09:33:00,
2013-04-13 02:38:00,38.5,35.5,29.80,South,175,4.0,8.0,89,0.00,,FEW,0.02,VWS V14.01,2013-04-13 09:38:00,
2013-04-13 02:43:00,38.5,35.5,29.80,South,172,2.0,8.0,89,0.00,,FEW,0.02,VWS V14.01,2013-04-13 09:43:00,
2013-04-13 02:49:00,38.5,35.5,29.81,South,184,3.0,8.0,89,0.00,,FEW,0.02,VWS V14.01,2013-04-13 09:49:00,
2013-04-13 02:54:00,38.6,35.6,29.81,South,186,9.0,11.0,89,0.00,,FEW,0.02,VWS V14.01,2013-04-13 09:54:00,
2013-04-13 02:59:00,38.5,35.3,29.79,South,187,10.0,12.0,88,0.00,,FEW,0.02,VWS V14.01,2013-04-13 09:59:00,
2013-04-13 03:05:00,38.2,35.0,29.79,South,190,7.0,14.0,88,0.00,,FEW,0.02,VWS V14.01,2013-04-13 10:05:00,
2013-04-13 03:10:00,38.0,34.5,29.79,SSE,167,2.0,14.0,87,0.00,,FEW,0.02,VWS V14.01,2013-04-13 10:10:00,
2013-04-13 03:15:00,37.9,34.4,29.80,SSW,194,4.0,14.0,87,0.00,,FEW,0.02,VWS V14.01,2013-04-13 10:15:00,
2013-04-13 03:20:00,38.0,34.5,29.80,South,189,6.0,14.0,87,0.00,,FEW,0.02,VWS V14.01,2013-04-13 10:20:00,
2013-04-13 03:25:00,37.9,34.4,29.80,SSW,198,3.0,14.0,87,0.00,,FEW,0.02,VWS V14.01,2013-04-13 10:25:00,
2013-04-13 03:30:00,37.8,34.0,29.81,SSW,199,2.0,4.0,86,0.00,,FEW,0.02,VWS V14.01,2013-04-13 10:30:00,
2013-04-13 03:35:00,37.8,34.0,29.81,SSW,197,5.0,11.0,86,0.00,,FEW,0.02,VWS V14.01,2013-04-13 10:35:00,
2013-04-13 03:40:00,37.8,34.0,29.81,SSW,199,3.0,11.0,86,0.00,,FEW,0.02,VWS V14.01,2013-04-13 10:40:00,
2013-04-13 03:46:00,37.6,33.8,29.82,SSW,193,3.0,11.0,86,0.00,,FEW,0.02,VWS V14.01,2013-04-13 10:46:00,
2013-04-13 03:52:00,37.8,34.0,29.82,SSW,194,4.0,11.0,86,0.00,,FEW,0.02,VWS V14.01,2013-04-13 10:52:00,
2013-04-13 03:57:00,37.8,33.7,29.82,SSW,197,6.0,11.0,85,0.00,,FEW,0.02,VWS V14.01,2013-04-13 10:57:00,
2013-04-13 04:02:00,37.8,33.7,29.83,South,188,6.0,11.0,85,0.00,,FEW,0.02,VWS V14.01,2013-04-13 11:02:00,
2013-04-13 04:07:00,37.8,33.4,29.83,South,188,6.0,11.0,84,0.00,,FEW,0.02,VWS V14.01,2013-04-13 11:07:00,
2013-04-13 04:12:00,37.9,33.8,29.83,SE,137,4.0,11.0,85,0.00,,FEW,0.02,VWS V14.01,2013-04-13 11:12:00,
2013-04-13 04:17:00,37.8,33.7,29.82,SE,126,4.0,11.0,85,0.00,,FEW,0.02,VWS V14.01,2013-04-13 11:17:00,
2013-04-13 04:22:00,37.6,33.2,29.82,South,183,4.0,11.0,84,0.00,,FEW,0.02,VWS V14.01,2013-04-13 11:22:00,
2013-04-13 04:27:00,37.5,33.1,29.82,SSE,159,3.0,14.0,84,0.00,,FEW,0.02,VWS V14.01,2013-04-13 11:27:00,
2013-04-13 04:32:00,37.2,32.8,29.82,SSW,199,4.0,11.0,84,0.00,,FEW,0.02,VWS V14.01,2013-04-13 11:32:00,
2013-04-13 04:37:00,37.2,32.8,29.82,SSW,205,5.0,12.0,84,0.00,,FEW,0.02,VWS V14.01,2013-04-13 11:37:00,
2013-04-13 04:42:00,37.3,32.6,29.82,SSW,197,5.0,12.0,83,0.00,,FEW,0.02,VWS V14.01,2013-04-13 11:42:00,
2013-04-13 04:47:00,37.2,32.5,29.83,SSE,158,1.0,12.0,83,0.00,,FEW,0.02,VWS V14.01,2013-04-13 11:47:00,
2013-04-13 04:52:00,37.0,32.3,29.83,SSW,195,3.0,12.0,83,0.00,,FEW,0.02,VWS V14.01,2013-04-13 11:52:00,
2013-04-13 04:58:00,37.0,32.3,29.83,South,175,4.0,12.0,83,0.00,,FEW,0.02,VWS V14.01,2013-04-13 11:58:00,
2013-04-13 05:03:00,36.9,32.2,29.84,South,185,4.0,10.0,83,0.00,,FEW,0.02,VWS V14.01,2013-04-13 12:03:00,
2013-04-13 05:08:00,36.9,32.5,29.84,South,188,6.0,10.0,84,0.00,,FEW,0.02,VWS V14.01,2013-04-13 12:08:00,
2013-04-13 05:13:00,36.9,32.2,29.84,South,181,6.0,10.0,83,0.00,,FEW,0.02,VWS V14.01,2013-04-13 12:13:00,
2013-04-13 05:18:00,36.9,32.5,29.84,South,172,5.0,10.0,84,0.00,,FEW,0.02,VWS V14.01,2013-04-13 12:18:00,
2013-04-13 05:24:00,36.8,32.1,29.84,South,170,3.0,10.0,83,0.00,,FEW,0.02,VWS V14.01,2013-04-13 12:24:00,
2013-04-13 05:29:00,36.8,32.1,29.84,SE,124,6.0,10.0,83,0.00,,FEW,0.02,VWS V14.01,2013-04-13 12:29:00,
2013-04-13 05:34:00,37.0,32.6,29.84,South,174,3.0,6.0,84,0.00,,FEW,0.02,VWS V14.01,2013-04-13 12:34:00,
2013-04-13 05:39:00,36.9,32.2,29.84,South,187,5.0,11.0,83,0.00,,FEW,0.02,VWS V14.01,2013-04-13 12:39:00,
2013-04-13 05:45:00,36.9,32.2,29.84,South,191,6.0,11.0,83,0.00,,FEW,0.02,VWS V14.01,2013-04-13 12:45:00,
2013-04-13 05:50:00,36.9,32.2,29.84,South,185,4.0,11.0,83,0.00,,FEW,0.02,VWS V14.01,2013-04-13 12:50:00,
2013-04-13 05:55:00,37.0,32.6,29.84,South,184,4.0,11.0,84,0.00,,FEW,0.02,VWS V14.01,2013-04-13 12:55:00,
2013-04-13 06:00:00,37.0,32.0,29.84,SSW,197,7.0,7.0,82,0.00,,FEW,0.02,VWS V14.01,2013-04-13 13:00:00,
2013-04-13 06:05:00,37.2,32.5,29.84,SSW,195,6.0,13.0,83,0.00,,FEW,0.02,VWS V14.01,2013-04-13 13:05:00,
2013-04-13 06:11:00,37.3,32.9,29.84,South,187,11.0,13.0,84,0.00,,FEW,0.02,VWS V14.01,2013-04-13 13:11:00,
2013-04-13 06:16:00,37.2,32.5,29.84,South,172,4.0,13.0,83,0.00,,FEW,0.02,VWS V14.01,2013-04-13 13:16:00,
2013-04-13 06:22:00,37.2,32.8,29.84,SSW,201,1.0,13.0,84,0.00,,FEW,0.02,VWS V14.01,2013-04-13 13:22:00,
2013-04-13 06:27:00,36.9,32.5,29.84,SSW,193,5.0,13.0,84,0.00,,FEW,0.02,VWS V14.01,2013-04-13 13:27:00,
2013-04-13 06:33:00,37.2,32.8,29.84,SE,140,5.0,9.0,84,0.00,,FEW,0.02,VWS V14.01,2013-04-13 13:33:00,
2013-04-13 06:38:00,37.2,32.8,29.84,SSW,203,2.0,10.0,84,0.00,,FEW,0.02,VWS V14.01,2013-04-13 13:38:00,
2013-04-13 06:43:00,37.2,33.1,29.84,South,175,1.0,10.0,85,0.00,,FEW,0.02,VWS V14.01,2013-04-13 13:43:00,
2013-04-13 06:48:00,37.2,33.1,29.85,ESE,112,1.0,10.0,85,0.00,,FEW,0.02,VWS V14.01,2013-04-13 13:48:00,
2013-04-13 06:53:00,37.0,32.6,29.85,SE,129,2.0,10.0,84,0.00,,FEW,0.02,VWS V14.01,2013-04-13 13:53:00,
2013-04-13 06:58:00,37.0,32.9,29.85,South,180,2.0,10.0,85,0.00,,FEW,0.02,VWS V14.01,2013-04-13 13:58:00,
2013-04-13 07:03:00,37.2,32.8,29.85,SE,126,0.0,4.0,84,0.00,,FEW,0.02,VWS V14.01,2013-04-13 14:03:00,
2013-04-13 07:08:00,37.3,32.9,29.85,SE,144,2.0,5.0,84,0.00,,FEW,0.02,VWS V14.01,2013-04-13 14:08:00,
2013-04-13 07:13:00,37.6,33.8,29.85,South,187,1.0,5.0,86,0.00,,FEW,0.02,VWS V14.01,2013-04-13 14:13:00,
2013-04-13 07:19:00,37.9,33.5,29.86,SSW,201,5.0,6.0,84,0.00,,FEW,0.02,VWS V14.01,2013-04-13 14:19:00,
2013-04-13 07:24:00,38.0,33.3,29.86,South,180,6.0,8.0,83,0.00,,FEW,0.02,VWS V14.01,2013-04-13 14:24:00,
2013-04-13 07:29:00,38.2,32.9,29.86,South,183,5.0,11.0,81,0.00,,FEW,0.02,VWS V14.01,2013-04-13 14:29:00,
2013-04-13 07:34:00,38.5,33.2,29.86,SSE,164,4.0,10.0,81,0.00,,FEW,0.02,VWS V14.01,2013-04-13 14:34:00,
2013-04-13 07:39:00,38.5,33.2,29.86,South,189,6.0,10.0,81,0.00,,FEW,0.02,VWS V14.01,2013-04-13 14:39:00,
2013-04-13 07:44:00,38.8,33.5,29.86,SSW,198,4.0,12.0,81,0.00,,FEW,0.02,VWS V14.01,2013-04-13 14:44:00,
2013-04-13 07:49:00,38.6,32.7,29.86,South,187,4.0,12.0,79,0.00,,FEW,0.02,VWS V14.01,2013-04-13 14:49:00,
2013-04-13 07:54:00,38.6,33.0,29.86,SSW,193,6.0,12.0,80,0.00,,FEW,0.02,VWS V14.01,2013-04-13 14:54:00,
2013-04-13 08:00:00,38.8,33.5,29.87,South,185,5.0,12.0,81,0.00,,FEW,0.02,VWS V14.01,2013-04-13 15:00:00,
2013-04-13 08:05:00,38.9,33.6,29.87,South,190,7.0,12.0,81,0.00,,FEW,0.02,VWS V14.01,2013-04-13 15:05:00,
2013-04-13 08:10:00,38.9,33.3,29.87,SSW,194,2.0,12.0,80,0.00,,FEW,0.02,VWS V14.01,2013-04-13 15:10:00,
2013-04-13 08:15:00,38.8,33.2,29.87,South,177,4.0,12.0,80,0.00,,FEW,0.02,VWS V14.01,2013-04-13 15:15:00,
2013-04-13 08:20:00,38.8,33.2,29.87,South,183,4.0,12.0,80,0.00,,FEW,0.02,VWS V14.01,2013-04-13 15:20:00,
2013-04-13 08:26:00,38.9,33.3,29.87,SSW,201,7.0,12.0,80,0.00,,FEW,0.02,VWS V14.01,2013-04-13 15:26:00,
2013-04-13 08:32:00,38.9,33.3,29.87,SW,217,7.0,11.0,80,0.00,,FEW,0.02,VWS V14.01,2013-04-13 15:32:00,
2013-04-13 08:37:00,39.1,33.5,29.87,South,189,4.0,11.0,80,0.00,,FEW,0.02,VWS V14.01,2013-04-13 15:37:00,
2013-04-13 08:43:00,39.1,33.5,29.87,South,190,5.0,13.0,80,0.00,,FEW,0.02,VWS V14.01,2013-04-13 15:43:00,
2013-04-13 08:48:00,39.2,33.6,29.87,South,172,2.0,13.0,80,0.00,,FEW,0.02,VWS V14.01,2013-04-13 15:48:00,
2013-04-13 08:53:00,39.2,33.6,29.87,SE,139,3.0,13.0,80,0.00,,FEW,0.02,VWS V14.01,2013-04-13 15:53:00,
2013-04-13 08:58:00,39.3,33.3,29.87,South,181,3.0,13.0,79,0.00,,FEW,0.02,VWS V14.01,2013-04-13 15:58:00,
2013-04-13 09:03:00,39.5,33.5,29.87,South,189,6.0,12.0,79,0.00,,FEW,0.02,VWS V14.01,2013-04-13 16:03:00,
2013-04-13 09:08:00,39.8,34.1,29.87,SSW,199,2.0,12.0,80,0.00,,FEW,0.02,VWS V14.01,2013-04-13 16:08:00,
2013-04-13 09:13:00,39.8,33.5,29.87,SSE,168,2.0,12.0,78,0.00,,FEW,0.02,VWS V14.01,2013-04-13 16:13:00,
2013-04-13 09:18:00,39.9,33.6,29.87,SSW,197,4.0,12.0,78,0.00,,FEW,0.02,VWS V14.01,2013-04-13 16:18:00,
2013-04-13 09:23:00,40.1,33.5,29.87,SSW,193,5.0,12.0,77,0.00,,FEW,0.02,VWS V14.01,2013-04-13 16:23:00,
2013-04-13 09:28:00,40.3,33.7,29.87,South,190,7.0,12.0,77,0.00,,FEW,0.02,VWS V14.01,2013-04-13 16:28:00,
2013-04-13 09:33:00,40.3,33.3,29.87,SSW,193,7.0,11.0,76,0.00,,FEW,0.02,VWS V14.01,2013-04-13 16:33:00,
2013-04-13 09:39:00,40.5,32.9,29.87,South,189,6.0,13.0,74,0.00,,FEW,0.02,VWS V14.01,2013-04-13 16:39:00,
2013-04-13 09:44:00,40.6,33.0,29.87,South,186,5.0,13.0,74,0.00,,FEW,0.02,VWS V14.01,2013-04-13 16:44:00,
2013-04-13 09:49:00,40.9,32.9,29.87,South,188,15.0,15.0,73,0.00,,FEW,0.02,VWS V14.01,2013-04-13 16:49:00,
2013-04-13 09:54:00,41.1,33.5,29.87,SE,133,11.0,15.0,74,0.00,,FEW,0.02,VWS V14.01,2013-04-13 16:54:00,
2013-04-13 09:59:00,40.9,32.9,29.87,SSW,198,3.0,15.0,73,0.00,,FEW,0.02,VWS V14.01,2013-04-13 16:59:00,
2013-04-13 10:05:00,40.9,33.3,29.87,SSW,197,4.0,13.0,74,0.00,,FEW,0.02,VWS V14.01,2013-04-13 17:05:00,
2013-04-13 10:10:00,40.9,32.9,29.87,South,187,10.0,18.0,73,0.00,,FEW,0.02,VWS V14.01,2013-04-13 17:10:00,
2013-04-13 10:15:00,40.8,32.8,29.87,SSW,197,11.0,18.0,73,0.00,,FEW,0.02,VWS V14.01,2013-04-13 17:15:00,
2013-04-13 10:20:00,40.5,32.9,29.87,South,191,6.0,18.0,74,0.00,,FEW,0.02,VWS V14.01,2013-04-13 17:20:00,
2013-04-13 10:25:00,40.2,33.2,29.87,South,187,4.0,18.0,76,0.00,,FEW,0.02,VWS V14.01,2013-04-13 17:25:00,
2013-04-13 10:30:00,39.9,33.3,29.87,South,187,9.0,11.0,77,0.01,,FEW,0.03,VWS V14.01,2013-04-13 17:30:00,
2013-04-13 10:35:00,39.8,34.5,29.87,SSW,208,7.0,12.0,81,0.01,,FEW,0.03,VWS V14.01,2013-04-13 17:35:00,
2013-04-13 10:40:00,39.8,34.1,29.87,SSW,206,10.0,12.0,80,0.01,,FEW,0.03,VWS V14.01,2013-04-13 17:40:00,
2013-04-13 10:45:00,39.9,33.9,29.87,SSW,199,6.0,13.0,79,0.01,,FEW,0.03,VWS V14.01,2013-04-13 17:45:00,
2013-04-13 10:50:00,39.9,33.9,29.87,SSW,193,6.0,13.0,79,0.01,,FEW,0.03,VWS V14.01,2013-04-13 17:50:00,
2013-04-13 10:55:00,40.3,34.6,29.87,SSE,168,2.0,13.0,80,0.01,,FEW,0.03,VWS V14.01,2013-04-13 17:55:00,
2013-04-13 11:01:00,40.5,34.5,29.87,SSW,205,15.0,15.0,79,0.01,,FEW,0.03,VWS V14.01,2013-04-13 18:01:00,
2013-04-13 11:06:00,40.8,34.2,29.87,South,191,13.0,15.0,77,0.01,,FEW,0.03,VWS V14.01,2013-04-13 18:06:00,
2013-04-13 11:11:00,40.8,33.8,29.87,SSW,192,4.0,15.0,76,0.01,,FEW,0.03,VWS V14.01,2013-04-13 18:11:00,
2013-04-13 11:16:00,40.9,34.3,29.87,South,188,4.0,15.0,77,0.01,,FEW,0.03,VWS V14.01,2013-04-13 18:16:00,
2013-04-13 11:21:00,41.1,34.5,29.87,South,190,10.0,15.0,77,0.01,,FEW,0.03,VWS V14.01,2013-04-13 18:21:00,
2013-04-13 11:27:00,41.2,34.9,29.87,SSW,195,7.0,15.0,78,0.01,,FEW,0.03,VWS V14.01,2013-04-13 18:27:00,
2013-04-13 11:32:00,41.1,34.8,29.88,SSW,194,8.0,15.0,78,0.00,,FEW,0.03,VWS V14.01,2013-04-13 18:32:00,
2013-04-13 11:38:00,40.9,34.6,29.88,SSW,192,12.0,15.0,78,0.00,,FEW,0.03,VWS V14.01,2013-04-13 18:38:00,
2013-04-13 11:43:00,40.5,34.8,29.88,SSW,193,4.0,17.0,80,0.00,,FEW,0.03,VWS V14.01,2013-04-13 18:43:00,
2013-04-13 11:48:00,40.5,35.1,29.88,South,186,10.0,17.0,81,0.01,,FEW,0.04,VWS V14.01,2013-04-13 18:48:00,
2013-04-13 11:53:00,40.8,35.1,29.88,ESE,120,9.0,17.0,80,0.01,,FEW,0.04,VWS V14.01,2013-04-13 18:53:00,
2013-04-13 11:58:00,40.9,35.2,29.88,SSW,196,3.0,17.0,80,0.01,,FEW,0.04,VWS V14.01,2013-04-13 18:58:00,
2013-04-13 12:03:00,41.1,35.7,29.89,SE,124,9.0,9.0,81,0.01,,FEW,0.04,VWS V14.01,2013-04-13 19:03:00,
2013-04-13 12:08:00,41.1,35.4,29.89,South,188,7.0,16.0,80,0.01,,FEW,0.04,VWS V14.01,2013-04-13 19:08:00,
2013-04-13 12:13:00,41.2,35.5,29.89,SSW,194,12.0,18.0,80,0.01,,FEW,0.04,VWS V14.01,2013-04-13 19:13:00,
2013-04-13 12:18:00,41.3,35.6,29.89,South,184,11.0,18.0,80,0.01,,FEW,0.04,VWS V14.01,2013-04-13 19:18:00,
2013-04-13 12:23:00,41.2,36.1,29.89,South,180,9.0,18.0,82,0.01,,FEW,0.04,VWS V14.01,2013-04-13 19:23:00,
2013-04-13 12:28:00,41.2,35.8,29.89,SSW,192,5.0,18.0,81,0.01,,FEW,0.04,VWS V14.01,2013-04-13 19:28:00,
2013-04-13 12:33:00,41.3,36.2,29.89,SSW,197,5.0,10.0,82,0.01,,FEW,0.04,VWS V14.01,2013-04-13 19:33:00,
2013-04-13 12:38:00,41.3,35.9,29.89,South,176,3.0,10.0,81,0.01,,FEW,0.04,VWS V14.01,2013-04-13 19:38:00,
2013-04-13 12:43:00,41.3,35.6,29.89,ESE,109,12.0,13.0,80,0.01,,FEW,0.04,VWS V14.01,2013-04-13 19:43:00,
2013-04-13 12:48:00,41.5,35.8,29.88,SSW,212,11.0,15.0,80,0.01,,FEW,0.04,VWS V14.01,2013-04-13 19:48:00,
2013-04-13 12:54:00,41.3,35.9,29.88,South,188,5.0,15.0,81,0.01,,FEW,0.04,VWS V14.01,2013-04-13 19:54:00,
2013-04-13 12:59:00,41.5,37.0,29.88,South,189,2.0,15.0,84,0.01,,FEW,0.04,VWS V14.01,2013-04-13 19:59:00,
2013-04-13 13:04:00,41.3,36.8,29.88,South,184,5.0,6.0,84,0.00,,FEW,0.04,VWS V14.01,2013-04-13 20:04:00,
2013-04-13 13:09:00,41.5,37.3,29.88,SE,132,8.0,8.0,85,0.00,,FEW,0.04,VWS V14.01,2013-04-13 20:09:00,
2013-04-13 13:14:00,41.5,37.0,29.88,South,188,3.0,9.0,84,0.00,,FEW,0.04,VWS V14.01,2013-04-13 20:14:00,
2013-04-13 13:19:00,41.3,36.8,29.88,South,190,5.0,9.0,84,0.01,,FEW,0.05,VWS V14.01,2013-04-13 20:19:00,
2013-04-13 13:24:00,41.1,36.6,29.88,SSE,168,5.0,13.0,84,0.01,,FEW,0.05,VWS V14.01,2013-04-13 20:24:00,
2013-04-13 13:29:00,40.8,36.7,29.89,South,170,6.0,13.0,85,0.02,,FEW,0.06,VWS V14.01,2013-04-13 20:29:00,
2013-04-13 13:34:00,40.6,36.5,29.89,SSW,192,5.0,8.0,85,0.02,,FEW,0.06,VWS V14.01,2013-04-13 20:34:00,
2013-04-13 13:39:00,40.6,36.5,29.89,SSW,193,3.0,8.0,85,0.02,,FEW,0.06,VWS V14.01,2013-04-13 20:39:00,
2013-04-13 13:44:00,40.8,36.9,29.89,South,180,5.0,8.0,86,0.02,,FEW,0.06,VWS V14.01,2013-04-13 20:44:00,
2013-04-13 13:49:00,40.8,36.9,29.89,South,183,1.0,8.0,86,0.03,,FEW,0.07,VWS V14.01,2013-04-13 20:49:00,
2013-04-13 13:54:00,40.8,37.2,29.89,SSW,203,0.0,8.0,87,0.04,,FEW,0.08,VWS V14.01,2013-04-13 20:54:00,
2013-04-13 13:59:00,40.8,36.7,29.88,SSW,196,3.0,13.0,85,0.05,,FEW,0.09,VWS V14.01,2013-04-13 20:59:00,
2013-04-13 14:04:00,41.1,37.5,29.88,SSE,154,1.0,5.0,87,0.05,,FEW,0.09,VWS V14.01,2013-04-13 21:04:00,
2013-04-13 14:09:00,41.2,37.9,29.88,SE,139,1.0,5.0,88,0.05,,FEW,0.09,VWS V14.01,2013-04-13 21:09:00,
2013-04-13 14:14:00,41.2,37.9,29.88,SE,144,0.0,5.0,88,0.05,,FEW,0.09,VWS V14.01,2013-04-13 21:14:00,
2013-04-13 14:19:00,41.3,38.0,29.88,South,187,4.0,5.0,88,0.05,,FEW,0.09,VWS V14.01,2013-04-13 21:19:00,
2013-04-13 14:24:00,41.3,38.0,29.88,SSW,192,0.0,5.0,88,0.06,,FEW,0.10,VWS V14.01,2013-04-13 21:24:00,
2013-04-13 14:29:00,41.2,37.9,29.89,SSW,196,0.0,5.0,88,0.07,,FEW,0.11,VWS V14.01,2013-04-13 21:29:00,
2013-04-13 14:34:00,41.1,37.8,29.89,SSW,196,0.0,2.0,88,0.07,,FEW,0.13,VWS V14.01,2013-04-13 21:34:00,
2013-04-13 14:39:00,40.6,37.3,29.89,SW,220,2.0,6.0,88,0.09,,FEW,0.15,VWS V14.01,2013-04-13 21:39:00,
2013-04-13 14:44:00,40.5,37.5,29.90,SE,138,5.0,7.0,89,0.11,,FEW,0.17,VWS V14.01,2013-04-13 21:44:00,
2013-04-13 14:49:00,40.6,37.6,29.90,SSW,193,5.0,11.0,89,0.11,,FEW,0.17,VWS V14.01,2013-04-13 21:49:00,
2013-04-13 14:54:00,40.8,37.5,29.90,SSW,204,3.0,11.0,88,0.11,,FEW,0.17,VWS V14.01,2013-04-13 21:54:00,
2013-04-13 14:59:00,40.9,37.6,29.89,SSW,210,4.0,11.0,88,0.11,,FEW,0.17,VWS V14.01,2013-04-13 21:59:00,
2013-04-13 15:04:00,41.3,38.0,29.89,SE,137,5.0,11.0,88,0.08,,FEW,0.17,VWS V14.01,2013-04-13 22:04:00,
2013-04-13 15:09:00,41.3,38.0,29.89,SSE,167,3.0,11.0,88,0.09,,FEW,0.18,VWS V14.01,2013-04-13 22:09:00,
2013-04-13 15:14:00,41.3,38.0,29.89,South,173,1.0,11.0,88,0.09,,FEW,0.18,VWS V14.01,2013-04-13 22:14:00,
2013-04-13 15:19:00,41.2,37.9,29.89,SSW,202,7.0,11.0,88,0.10,,FEW,0.19,VWS V14.01,2013-04-13 22:19:00,
2013-04-13 15:24:00,41.3,38.3,29.89,South,186,3.0,11.0,89,0.10,,FEW,0.19,VWS V14.01,2013-04-13 22:24:00,
2013-04-13 15:29:00,41.3,38.3,29.89,SSW,192,6.0,11.0,89,0.11,,FEW,0.20,VWS V14.01,2013-04-13 22:29:00,
2013-04-13 15:34:00,41.3,38.6,29.89,South,183,2.0,5.0,90,0.09,,FEW,0.20,VWS V14.01,2013-04-13 22:34:00,
2013-04-13 15:39:00,41.3,38.3,29.89,South,185,9.0,13.0,89,0.09,,FEW,0.20,VWS V14.01,2013-04-13 22:39:00,
2013-04-13 15:44:00,41.5,38.5,29.89,SSW,195,4.0,13.0,89,0.09,,FEW,0.20,VWS V14.01,2013-04-13 22:44:00,
2013-04-13 15:49:00,41.5,38.5,29.89,South,189,4.0,13.0,89,0.09,,FEW,0.20,VWS V14.01,2013-04-13 22:49:00,
2013-04-13 15:54:00,41.6,38.6,29.89,SSW,200,8.0,13.0,89,0.09,,FEW,0.20,VWS V14.01,2013-04-13 22:54:00,
2013-04-13 15:59:00,41.8,37.6,29.89,SSW,192,5.0,13.0,85,0.09,,FEW,0.20,VWS V14.01,2013-04-13 22:59:00,
2013-04-13 16:04:00,41.6,38.6,29.89,SSW,194,5.0,14.0,89,0.03,,FEW,0.20,VWS V14.01,2013-04-13 23:04:00,
2013-04-13 16:09:00,41.6,38.6,29.89,South,183,5.0,14.0,89,0.03,,FEW,0.20,VWS V14.01,2013-04-13 23:09:00,
2013-04-13 16:14:00,41.5,38.5,29.89,SSW,194,5.0,14.0,89,0.03,,FEW,0.20,VWS V14.01,2013-04-13 23:14:00,
2013-04-13 16:19:00,41.5,38.8,29.89,SSW,192,2.0,14.0,90,0.03,,FEW,0.20,VWS V14.01,2013-04-13 23:19:00,
2013-04-13 16:24:00,41.3,38.6,29.89,South,190,1.0,14.0,90,0.04,,FEW,0.21,VWS V14.01,2013-04-13 23:24:00,
2013-04-13 16:29:00,41.3,38.3,29.89,South,185,3.0,14.0,89,0.04,,FEW,0.21,VWS V14.01,2013-04-13 23:29:00,
2013-04-13 16:34:00,41.5,38.8,29.89,South,189,9.0,10.0,90,0.01,,FEW,0.21,VWS V14.01,2013-04-13 23:34:00,
2013-04-13 16:39:00,41.8,38.5,29.89,SSW,193,4.0,10.0,88,0.01,,FEW,0.21,VWS V14.01,2013-04-13 23:39:00,
2013-04-13 16:45:00,41.9,38.6,29.89,South,188,9.0,10.0,88,0.01,,FEW,0.21,VWS V14.01,2013-04-13 23:45:00,
2013-04-13 16:50:00,42.1,38.8,29.89,South,185,13.0,14.0,88,0.01,,FEW,0.21,VWS V14.01,2013-04-13 23:50:00,
2013-04-13 16:55:00,42.3,39.0,29.89,South,183,4.0,14.0,88,0.01,,FEW,0.21,VWS V14.01,2013-04-13 23:55:00,
2013-04-13 17:00:00,42.5,39.2,29.89,SSW,199,10.0,10.0,88,0.01,,FEW,0.21,VWS V14.01,2013-04-14 00:00:00,
2013-04-13 17:05:00,42.5,38.9,29.89,South,180,7.0,12.0,87,0.01,,FEW,0.21,VWS V14.01,2013-04-14 00:05:00,
2013-04-13 17:10:00,42.8,39.2,29.89,South,169,4.0,12.0,87,0.01,,FEW,0.21,VWS V14.01,2013-04-14 00:10:00,
2013-04-13 17:15:00,42.6,38.7,29.89,SSW,198,9.0,14.0,86,0.01,,FEW,0.21,VWS V14.01,2013-04-14 00:15:00,
2013-04-13 17:20:00,42.8,38.9,29.89,SSW,197,5.0,14.0,86,0.01,,FEW,0.21,VWS V14.01,2013-04-14 00:20:00,
2013-04-13 17:25:00,42.8,38.9,29.89,South,189,3.0,14.0,86,0.01,,FEW,0.21,VWS V14.01,2013-04-14 00:25:00,
2013-04-13 17:30:00,42.6,38.7,29.90,SE,143,3.0,10.0,86,0.00,,FEW,0.21,VWS V14.01,2013-04-14 00:30:00,
2013-04-13 17:35:00,42.9,39.0,29.90,South,187,6.0,11.0,86,0.00,,FEW,0.21,VWS V14.01,2013-04-14 00:35:00,
2013-04-13 17:40:00,42.9,39.3,29.90,SSW,197,4.0,11.0,87,0.00,,FEW,0.21,VWS V14.01,2013-04-14 00:40:00,
2013-04-13 17:45:00,43.1,39.2,29.89,South,187,2.0,11.0,86,0.00,,FEW,0.21,VWS V14.01,2013-04-14 00:45:00,
2013-04-13 17:50:00,43.5,39.6,29.89,SSW,193,4.0,11.0,86,0.00,,FEW,0.21,VWS V14.01,2013-04-14 00:50:00,
2013-04-13 17:55:00,43.9,40.0,29.89,South,184,4.0,11.0,86,0.00,,FEW,0.21,VWS V14.01,2013-04-14 00:55:00,
2013-04-13 18:00:00,44.1,39.6,29.89,South,187,4.0,6.0,84,0.00,,FEW,0.21,VWS V14.01,2013-04-14 01:00:00,
2013-04-13 18:05:00,44.1,39.6,29.89,South,184,3.0,9.0,84,0.00,,FEW,0.21,VWS V14.01,2013-04-14 01:05:00,
2013-04-13 18:10:00,44.1,39.3,29.89,SSW,192,11.0,12.0,83,0.00,,FEW,0.21,VWS V14.01,2013-04-14 01:10:00,
2013-04-13 18:15:00,44.1,39.3,29.89,South,187,8.0,13.0,83,0.00,,FEW,0.21,VWS V14.01,2013-04-14 01:15:00,
2013-04-13 18:20:00,44.1,39.6,29.89,SSW,193,6.0,13.0,84,0.00,,FEW,0.21,VWS V14.01,2013-04-14 01:20:00,
2013-04-13 18:25:00,43.8,38.7,29.89,SSW,207,6.0,13.0,82,0.00,,FEW,0.21,VWS V14.01,2013-04-14 01:25:00,
2013-04-13 18:30:00,43.6,38.8,29.89,SSW,193,5.0,10.0,83,0.00,,FEW,0.21,VWS V14.01,2013-04-14 01:30:00,
2013-04-13 18:35:00,43.2,38.7,29.89,SSW,195,6.0,10.0,84,0.00,,FEW,0.21,VWS V14.01,2013-04-14 01:35:00,
2013-04-13 18:40:00,43.1,38.9,29.89,South,179,5.0,11.0,85,0.00,,FEW,0.21,VWS V14.01,2013-04-14 01:40:00,
2013-04-13 18:45:00,43.1,39.2,29.89,South,191,9.0,11.0,86,0.00,,FEW,0.21,VWS V14.01,2013-04-14 01:45:00,
2013-04-13 18:50:00,42.9,39.0,29.89,SSW,192,5.0,11.0,86,0.00,,FEW,0.21,VWS V14.01,2013-04-14 01:50:00,
2013-04-13 18:55:00,42.9,39.3,29.89,South,191,4.0,11.0,87,0.00,,FEW,0.21,VWS V14.01,2013-04-14 01:55:00,
2013-04-13 19:00:00,42.8,38.6,29.90,SSW,197,9.0,10.0,85,0.00,,FEW,0.21,VWS V14.01,2013-04-14 02:00:00,
2013-04-13 19:05:00,42.6,38.4,29.90,SW,226,3.0,10.0,85,0.01,,FEW,0.22,VWS V14.01,2013-04-14 02:05:00,
2013-04-13 19:10:00,42.5,38.6,29.90,South,189,4.0,10.0,86,0.01,,FEW,0.22,VWS V14.01,2013-04-14 02:10:00,
2013-04-13 19:15:00,42.5,38.9,29.90,South,184,3.0,10.0,87,0.01,,FEW,0.22,VWS V14.01,2013-04-14 02:15:00,
2013-04-13 19:20:00,42.5,39.8,29.90,SSW,194,2.0,10.0,90,0.01,,FEW,0.22,VWS V14.01,2013-04-14 02:20:00,
2013-04-13 19:25:00,42.6,39.0,29.90,South,180,2.0,10.0,87,0.01,,FEW,0.22,VWS V14.01,2013-04-14 02:25:00,
2013-04-13 19:30:00,42.6,39.0,29.90,South,191,4.0,8.0,87,0.01,,FEW,0.22,VWS V14.01,2013-04-14 02:30:00,
2013-04-13 19:35:00,42.6,39.0,29.90,South,184,1.0,8.0,87,0.01,,FEW,0.22,VWS V14.01,2013-04-14 02:35:00,
2013-04-13 19:40:00,42.6,39.0,29.90,South,174,5.0,8.0,87,0.01,,FEW,0.22,VWS V14.01,2013-04-14 02:40:00,
2013-04-13 19:45:00,42.6,39.0,29.90,SSW,197,6.0,12.0,87,0.01,,FEW,0.22,VWS V14.01,2013-04-14 02:45:00,
2013-04-13 19:51:00,42.6,38.7,29.90,SSW,194,4.0,12.0,86,0.01,,FEW,0.22,VWS V14.01,2013-04-14 02:51:00,
2013-04-13 19:56:00,42.6,38.7,29.90,South,173,2.0,12.0,86,0.01,,FEW,0.22,VWS V14.01,2013-04-14 02:56:00,
2013-04-13 20:01:00,42.8,38.9,29.90,South,176,3.0,5.0,86,0.01,,FEW,0.22,VWS V14.01,2013-04-14 03:01:00,
2013-04-13 20:06:00,42.6,38.4,29.90,South,184,3.0,9.0,85,0.01,,FEW,0.22,VWS V14.01,2013-04-14 03:06:00,
2013-04-13 20:11:00,42.6,38.4,29.90,South,180,7.0,12.0,85,0.01,,FEW,0.22,VWS V14.01,2013-04-14 03:11:00,
2013-04-13 20:16:00,42.6,38.4,29.91,SSW,192,3.0,12.0,85,0.01,,FEW,0.22,VWS V14.01,2013-04-14 03:16:00,
2013-04-13 20:21:00,42.5,38.3,29.91,SSW,201,3.0,12.0,85,0.01,,FEW,0.22,VWS V14.01,2013-04-14 03:21:00,
2013-04-13 20:26:00,42.5,38.3,29.91,South,190,2.0,12.0,85,0.01,,FEW,0.22,VWS V14.01,2013-04-14 03:26:00,
2013-04-13 20:31:00,42.3,37.8,29.92,SSW,193,0.0,4.0,84,0.00,,FEW,0.22,VWS V14.01,2013-04-14 03:31:00,
2013-04-13 20:36:00,42.3,37.8,29.92,South,183,3.0,11.0,84,0.00,,FEW,0.22,VWS V14.01,2013-04-14 03:36:00,
2013-04-13 20:41:00,42.5,38.0,29.92,South,175,1.0,11.0,84,0.00,,FEW,0.22,VWS V14.01,2013-04-14 03:41:00,
2013-04-13 20:46:00,42.3,37.8,29.92,South,191,4.0,11.0,84,0.00,,FEW,0.22,VWS V14.01,2013-04-14 03:46:00,
2013-04-13 20:51:00,42.3,37.8,29.92,SSW,198,2.0,11.0,84,0.00,,FEW,0.22,VWS V14.01,2013-04-14 03:51:00,
2013-04-13 20:56:00,42.3,38.1,29.92,SSW,198,3.0,11.0,85,0.00,,FEW,0.22,VWS V14.01,2013-04-14 03:56:00,
2013-04-13 21:00:00,42.2,38.0,29.92,South,189,3.0,4.0,85,0.00,,FEW,0.22,VWS V14.01,2013-04-14 04:00:00,
2013-04-13 21:05:00,42.2,38.0,29.92,SSW,196,2.0,6.0,85,0.00,,FEW,0.22,VWS V14.01,2013-04-14 04:05:00,
2013-04-13 21:10:00,42.2,38.0,29.92,South,183,2.0,6.0,85,0.00,,FEW,0.22,VWS V14.01,2013-04-14 04:10:00,
2013-04-13 21:15:00,42.2,38.0,29.93,South,188,2.0,8.0,85,0.00,,FEW,0.22,VWS V14.01,2013-04-14 04:15:00,
2013-04-13 21:20:00,42.1,37.9,29.93,South,185,5.0,8.0,85,0.00,,FEW,0.22,VWS V14.01,2013-04-14 04:20:00,
2013-04-13 21:25:00,42.2,38.0,29.93,South,185,3.0,8.0,85,0.00,,FEW,0.22,VWS V14.01,2013-04-14 04:25:00,
2013-04-13 21:30:00,42.2,37.7,29.92,SSW,194,7.0,7.0,84,0.00,,FEW,0.22,VWS V14.01,2013-04-14 04:30:00,
2013-04-13 21:35:00,42.2,37.7,29.92,ESE,122,2.0,10.0,84,0.00,,FEW,0.22,VWS V14.01,2013-04-14 04:35:00,
2013-04-13 21:40:00,42.1,37.6,29.92,South,178,1.0,10.0,84,0.00,,FEW,0.22,VWS V14.01,2013-04-14 04:40:00,
2013-04-13 21:45:00,42.1,37.6,29.93,South,172,2.0,10.0,84,0.00,,FEW,0.22,VWS V14.01,2013-04-14 04:45:00,
2013-04-13 21:50:00,41.9,37.4,29.93,South,182,3.0,10.0,84,0.00,,FEW,0.22,VWS V14.01,2013-04-14 04:50:00,
2013-04-13 21:55:00,41.9,37.4,29.93,SSW,193,4.0,10.0,84,0.00,,FEW,0.22,VWS V14.01,2013-04-14 04:55:00,
2013-04-13 22:00:00,42.1,37.6,29.94,SSW,208,2.0,5.0,84,0.00,,FEW,0.22,VWS V14.01,2013-04-14 05:00:00,
2013-04-13 22:05:00,42.1,37.6,29.94,South,191,6.0,6.0,84,0.00,,FEW,0.22,VWS V14.01,2013-04-14 05:05:00,
2013-04-13 22:10:00,41.9,37.4,29.94,SSW,192,4.0,7.0,84,0.00,,FEW,0.22,VWS V14.01,2013-04-14 05:10:00,
2013-04-13 22:15:00,42.1,37.6,29.94,South,185,3.0,7.0,84,0.00,,FEW,0.22,VWS V14.01,2013-04-14 05:15:00,
2013-04-13 22:20:00,41.9,37.4,29.94,South,176,0.0,7.0,84,0.00,,FEW,0.22,VWS V14.01,2013-04-14 05:20:00,
2013-04-13 22:25:00,41.6,37.1,29.94,South,174,3.0,7.0,84,0.00,,FEW,0.22,VWS V14.01,2013-04-14 05:25:00,
2013-04-13 22:30:00,41.6,37.1,29.94,South,189,2.0,5.0,84,0.00,,FEW,0.22,VWS V14.01,2013-04-14 05:30:00,
2013-04-13 22:35:00,41.5,37.0,29.94,South,180,0.0,6.0,84,0.00,,FEW,0.22,VWS V14.01,2013-04-14 05:35:00,
2013-04-13 22:40:00,41.5,37.0,29.94,South,189,4.0,7.0,84,0.00,,FEW,0.22,VWS V14.01,2013-04-14 05:40:00,
2013-04-13 22:45:00,41.3,36.8,29.94,South,189,2.0,7.0,84,0.00,,FEW,0.22,VWS V14.01,2013-04-14 05:45:00,
2013-04-13 22:50:00,41.2,36.7,29.94,South,172,4.0,7.0,84,0.00,,FEW,0.22,VWS V14.01,2013-04-14 05:50:00,
2013-04-13 22:55:00,41.1,36.6,29.94,South,190,4.0,7.0,84,0.00,,FEW,0.22,VWS V14.01,2013-04-14 05:55:00,
2013-04-13 23:01:00,41.1,36.6,29.94,South,187,3.0,4.0,84,0.00,,FEW,0.22,VWS V14.01,2013-04-14 06:01:00,
2013-04-13 23:06:00,41.1,36.6,29.94,South,191,0.0,4.0,84,0.00,,FEW,0.22,VWS V14.01,2013-04-14 06:06:00,
2013-04-13 23:11:00,40.9,36.5,29.94,SSE,152,0.0,4.0,84,0.00,,FEW,0.22,VWS V14.01,2013-04-14 06:11:00,
2013-04-13 23:16:00,41.1,36.9,29.94,SSE,160,1.0,4.0,85,0.00,,FEW,0.22,VWS V14.01,2013-04-14 06:16:00,
2013-04-13 23:21:00,41.1,36.9,29.94,SW,214,1.0,4.0,85,0.00,,FEW,0.22,VWS V14.01,2013-04-14 06:21:00,
2013-04-13 23:27:00,40.9,36.8,29.94,SSW,209,0.0,4.0,85,0.00,,FEW,0.22,VWS V14.01,2013-04-14 06:27:00,
2013-04-13 23:32:00,40.8,36.9,29.94,South,182,0.0,3.0,86,0.00,,FEW,0.22,VWS V14.01,2013-04-14 06:32:00,
2013-04-13 23:37:00,40.6,36.8,29.94,SSW,195,0.0,3.0,86,0.00,,FEW,0.22,VWS V14.01,2013-04-14 06:37:00,
2013-04-13 23:42:00,40.5,36.7,29.94,SSW,199,0.0,3.0,86,0.00,,FEW,0.22,VWS V14.01,2013-04-14 06:42:00,
2013-04-13 23:47:00,40.2,36.3,29.94,South,176,0.0,3.0,86,0.00,,FEW,0.22,VWS V14.01,2013-04-14 06:47:00,
2013-04-13 23:52:00,40.3,36.5,29.94,South,186,2.0,3.0,86,0.00,,FEW,0.22,VWS V14.01,2013-04-14 06:52:00,
2013-04-13 23:57:00,40.5,36.3,29.94,South,189,0.0,6.0,85,0.00,,FEW,0.22,VWS V14.01,2013-04-14 06:57:00,